ZHONGXING-6C

Last updated on Sun Apr 12 2026 00:02:55 GMT+0000 (Coordinated Universal Time)

1 44067U 19012A 26101.54651749 -.00000334 00000+0 00000+0 0 9994 2 44067 0.0655 63.7640 0011170 334.9296 128.2341 1.00270683 26074
UTC large
Height (km)
Speed (km/s)
/
Latitude / Longitude
Inclination (degrees)
Orbital Period (minutes)
Azimuth
Elevation
Range (km)
Doppler Factor

Next 0 passes for location: London (51.5072 / 0.1276)

Sorry there are no passes over London.
ZHONGXING-6C